Terug naar catalogus

STARLINK-35426

ActiefCommunicatieVLEO
NORAD 66441·PAYLOAD·🇺🇸 United States

Gelanceerd Nov 11, 2025 vanaf Cape Canaveral Space Force Station

Loading…

Volgende Passages (komende 24 uur)

TLE

VersSource: CelesTrak SupGP

Epoch: Sep 14, 2026, 20:48 UTC

1 66441C 25259V   26257.86715278 -.00003648  00000+0 -13213-3 0  2572
2 66441  43.0019 285.8654 0001397 265.3283 133.3092 15.27579524    16

Volg STARLINK-35426 in realtime met AllMySat

Download on the App Store